Terminal Aerodrome Forecast
Issued by NWS Tuscon, AZ

Home | Current Version | Previous Version | Text Only | Print | Product List | Glossary On
Versions: 1 2 3 4 5 6 7 8 9 10 11 12 13 14 15 16 17 18
000
FTUS45 KTWC 061136
TAFDUG
TAF
KDUG 061136Z 0612/0712 29006KT P6SM FEW070 BKN130
     FM061800 29011KT P6SM VCSH SCT070 BKN100
     FM070300 35006KT P6SM SCT080 BKN120=

USA.gov is the U.S. government's official web portal to all federal, state and local government web resources and services.